Location: Corozal
(10.2831°N, 67.3753°W)
Time: 11:07:58
(UTC+00:00)

Daily predictions for brighter satellites

Satellite Brightness Start Highest point End
(mag) Time Altitude Azimuth Time Altitude Azimuth Time Altitude Azimuth
Cosmos 1515 3.4 23:07:43 10° S 23:11:10 69° E 23:14:35 10° N
Cosmos 1076 Rocket 3.5 23:07:06 10° N 23:11:20 72° E 23:15:38 10° S
Cosmos 921 Rocket 3.0 23:07:43 10° S 23:12:07 73° E 23:16:34 10° NNE
SAR-Lupe-2 3.5 23:09:11 10° SSE 23:12:45 81° ENE 23:16:18 10° N
ATLAS 3B R/B 4.4 23:07:53 10° NNE 23:12:51 18° ENE 23:17:40 10° E
GPS 2-14 Rocket1 3.7 23:11:16 10° NW 23:13:55 26° NNE 23:16:34 10° ENE
Cosmos 1378 2.8 23:17:49 10° S 23:21:01 57° E 23:24:12 10° NNE
CZ-4B R/B 3.6 23:20:11 10° SSE 23:24:45 49° ENE 23:29:23 10° N
Helios 1B rocket 4.5 23:23:42 10° SSW 23:27:01 26° W 23:30:19 10° NW
Cosmos 494 Rocket 3.9 23:22:09 10° S 23:27:15 87° ESE 23:32:20 10° NNE
Cosmos 2278 Rocket 2.6 23:22:39 10° NNW 23:28:14 66° WSW 23:33:48 10° S
ATLAS 5 CENTAUR R/B 4.0 23:23:41 10° NW 23:29:38 38° WSW 23:36:20 10° S
Centaur AC-119 4.3 23:26:49 10° S 23:30:12 24° SE 23:37:37 10° E
NOAA 6 4.4 23:26:04 10° S 23:31:06 67° WSW 23:36:12 10° NNW
CBERS 1 LM4 rocket 4.5 23:27:55 10° SSE 23:32:56 81° ENE 23:38:10 10° N
Cosmos 192 4.3 23:29:04 10° N 23:33:58 73° ENE 23:38:53 10° SSE
USA 308 4.4 23:33:31 10° WNW 23:36:01 22° SW 23:38:51 10° S
Radarsat Rocket 4.2 23:30:48 10° S 23:36:35 74° WSW 23:42:40 10° NNW
SJ-6B 4.0 23:35:03 17° ESE 23:36:40 23° ENE 23:39:37 10° NNE
Landsat 7 3.7 23:40:05 10° SSE 23:44:47 86° ENE 23:49:28 10° N
USA 290 2.9 23:43:09 10° N 23:46:05 34° ENE 23:46:55 29° ESE
Tsikada Rocket 4.1 23:41:20 10° SSE 23:47:17 52° E 23:53:15 10° NNE
Cosmos 1603 3.6 23:45:45 10° SSW 23:51:22 85° ESE 23:57:01 10° NNE
